Powrót do katalogu

DMSP 5D-2 F13 DEB

AktywnySSO
NORAD 40575·DEBRIS·🇺🇸 United States

Wystrzelony Mar 24, 1995 z Vandenberg Space Force Base

Loading…

Następne Przeloty (najbliższe 24 godziny)

TLE

ŚwieżeSource: Space-Track

Epoka: Sep 14, 2026, 14:35 UTC

1 40575U 95015EJ  26257.60770748  .00004692  00000-0  11122-2 0  9992
2 40575  98.5885 313.1846 0010137 253.2558 106.7526 14.54467003597477

Śledź DMSP 5D-2 F13 DEB w czasie rzeczywistym z AllMySat

Download on the App Store